Location: Griffin Ranch
(33.6186°N, 110.6622°W)
Time: 13:34:58
(UTC-07:00)

Cosmos 1812 - Visible Passes

Search period start: 23 May 2017 00:00
Search period end: 02 June 2017 00:00
Orbit: 521 x 524 km, 82.5° (Epoch: 22 May)

Date Brightness Start Highest point End Pass type
(mag) Time Alt. Az. Time Alt. Az. Time Alt. Az.
23 May 6.0 20:55:37 10° W 20:56:59 12° WNW 20:58:21 10° NW visible
24 May 5.9 20:42:07 10° WSW 20:44:04 13° WNW 20:46:01 10° NW visible
25 May 5.8 20:28:48 10° WSW 20:31:09 15° WNW 20:33:32 10° NW visible
26 May 5.7 20:15:34 10° WSW 20:18:15 18° WNW 20:20:57 10° NNW visible
27 May 5.7 20:02:24 10° SW 20:05:21 21° WNW 20:08:18 10° NNW visible
28 May 5.5 19:49:18 10° SW 19:52:27 24° WNW 19:55:37 10° NNW visible
